Time,TemperatureF,DewpointF,PressureIn,WindDirection,WindDirectionDegrees,WindSpeedMPH,WindSpeedGustMPH,Humidity,HourlyPrecipIn,Conditions,Clouds,dailyrainin,SolarRadiationWatts/m^2,SoftwareType,DateUTC
2013-06-08 00:09:00,61.3,51.0,29.88,SSE,148,8.0,-999.0,69,-99.99,,,0.00,0,weatherlink.com 1.10,2013-06-08 05:09:00,
2013-06-08 00:24:00,61.1,51.0,29.86,SE,146,11.0,-999.0,69,-99.99,,,0.00,0,weatherlink.com 1.10,2013-06-08 05:24:00,
2013-06-08 00:40:00,61.2,51.0,29.86,SSE,161,11.0,-999.0,69,-99.99,,,0.00,0,weatherlink.com 1.10,2013-06-08 05:40:00,
2013-06-08 00:55:00,60.7,51.0,29.86,SSE,157,8.0,-999.0,71,-99.99,,,0.00,0,weatherlink.com 1.10,2013-06-08 05:55:00,
2013-06-08 01:10:00,60.2,51.0,29.86,SSE,158,8.0,-999.0,72,-99.99,,,0.00,0,weatherlink.com 1.10,2013-06-08 06:10:00,
2013-06-08 01:25:00,59.7,51.0,29.86,SSE,152,10.0,-999.0,73,-99.99,,,0.00,0,weatherlink.com 1.10,2013-06-08 06:25:00,
2013-06-08 01:40:00,59.3,51.0,29.85,SSE,159,9.0,-999.0,74,-99.99,,,0.00,0,weatherlink.com 1.10,2013-06-08 06:40:00,
2013-06-08 01:55:00,59.0,51.0,29.86,SSE,159,6.0,-999.0,75,-99.99,,,0.00,0,weatherlink.com 1.10,2013-06-08 06:55:00,
2013-06-08 02:10:00,59.0,51.0,29.85,SSE,152,7.0,-999.0,76,-99.99,,,0.00,0,weatherlink.com 1.10,2013-06-08 07:10:00,
2013-06-08 02:25:00,58.6,51.0,29.86,SSE,148,6.0,-999.0,76,-99.99,,,0.00,0,weatherlink.com 1.10,2013-06-08 07:25:00,
2013-06-08 02:40:00,58.3,51.0,29.84,SSE,150,6.0,-999.0,78,-99.99,,,0.00,0,weatherlink.com 1.10,2013-06-08 07:40:00,
2013-06-08 02:55:00,58.1,51.0,29.83,SE,131,7.0,-999.0,78,-99.99,,,0.00,0,weatherlink.com 1.10,2013-06-08 07:55:00,
2013-06-08 03:12:00,58.0,51.0,29.82,SE,140,7.0,-999.0,78,-99.99,,,0.00,0,weatherlink.com 1.10,2013-06-08 08:12:00,
2013-06-08 03:25:00,57.8,51.0,29.82,SE,132,9.0,-999.0,79,-99.99,,,0.00,0,weatherlink.com 1.10,2013-06-08 08:25:00,
2013-06-08 03:40:00,57.7,51.0,29.82,SSE,150,8.0,-999.0,79,-99.99,,,0.00,0,weatherlink.com 1.10,2013-06-08 08:40:00,
2013-06-08 03:55:00,57.7,51.0,29.83,South,169,9.0,-999.0,79,-99.99,,,0.00,0,weatherlink.com 1.10,2013-06-08 08:55:00,
2013-06-08 04:10:00,57.5,51.0,29.82,SSE,162,11.0,-999.0,80,-99.99,,,0.00,0,weatherlink.com 1.10,2013-06-08 09:10:00,
2013-06-08 04:25:00,57.3,51.0,29.81,SSE,155,10.0,-999.0,80,-99.99,,,0.00,0,weatherlink.com 1.10,2013-06-08 09:25:00,
2013-06-08 04:40:00,57.1,51.0,29.81,SSE,159,8.0,-999.0,81,-99.99,,,0.00,0,weatherlink.com 1.10,2013-06-08 09:40:00,
2013-06-08 04:55:00,56.9,52.0,29.81,SSE,167,8.0,-999.0,82,-99.99,,,0.00,0,weatherlink.com 1.10,2013-06-08 09:55:00,
2013-06-08 05:10:00,56.8,51.0,29.81,SSE,162,10.0,-999.0,82,-99.99,,,0.00,0,weatherlink.com 1.10,2013-06-08 10:10:00,
2013-06-08 05:25:00,56.8,51.0,29.80,South,171,9.0,-999.0,82,-99.99,,,0.00,0,weatherlink.com 1.10,2013-06-08 10:25:00,
2013-06-08 05:40:00,56.8,51.0,29.80,SSE,159,8.0,-999.0,82,-99.99,,,0.00,0,weatherlink.com 1.10,2013-06-08 10:40:00,
2013-06-08 05:55:00,57.1,52.0,29.80,South,176,13.0,-999.0,82,-99.99,,,0.00,0,weatherlink.com 1.10,2013-06-08 10:55:00,
2013-06-08 06:10:00,57.5,52.0,29.80,SSE,165,9.0,-999.0,81,-99.99,,,0.00,7,weatherlink.com 1.10,2013-06-08 11:10:00,
2013-06-08 06:25:00,57.8,52.0,29.80,SSE,163,10.0,-999.0,80,-99.99,,,0.00,19,weatherlink.com 1.10,2013-06-08 11:25:00,
2013-06-08 06:40:00,58.3,52.0,29.79,South,169,14.0,-999.0,80,-99.99,,,0.00,44,weatherlink.com 1.10,2013-06-08 11:40:00,
2013-06-08 06:55:00,59.0,53.0,29.79,South,178,16.0,-999.0,79,-99.99,,,0.00,60,weatherlink.com 1.10,2013-06-08 11:55:00,
2013-06-08 07:10:00,59.9,53.0,29.78,SSE,163,16.0,-999.0,78,-99.99,,,0.00,58,weatherlink.com 1.10,2013-06-08 12:10:00,
2013-06-08 07:25:00,60.5,53.0,29.77,South,172,16.0,-999.0,76,-99.99,,,0.00,86,weatherlink.com 1.10,2013-06-08 12:25:00,
2013-06-08 07:40:00,61.1,54.0,29.77,SSE,167,16.0,-999.0,76,-99.99,,,0.00,91,weatherlink.com 1.10,2013-06-08 12:40:00,
2013-06-08 07:55:00,61.5,54.0,29.76,South,187,15.0,-999.0,75,-99.99,,,0.00,88,weatherlink.com 1.10,2013-06-08 12:55:00,
2013-06-08 08:10:00,62.2,54.0,29.76,South,173,18.0,-999.0,74,-99.99,,,0.00,139,weatherlink.com 1.10,2013-06-08 13:10:00,
2013-06-08 08:25:00,62.6,54.0,29.76,South,173,16.0,-999.0,73,-99.99,,,0.00,100,weatherlink.com 1.10,2013-06-08 13:25:00,
2013-06-08 08:40:00,62.9,54.0,29.76,South,181,21.0,-999.0,73,-99.99,,,0.00,93,weatherlink.com 1.10,2013-06-08 13:40:00,
2013-06-08 08:55:00,63.4,55.0,29.76,South,173,18.0,-999.0,73,-99.99,,,0.00,47,weatherlink.com 1.10,2013-06-08 13:55:00,
2013-06-08 09:10:00,63.9,55.0,29.77,SSW,202,13.0,-999.0,73,-99.99,,,0.00,58,weatherlink.com 1.10,2013-06-08 14:10:00,
2013-06-08 09:25:00,63.6,57.0,29.79,SSW,200,7.0,-999.0,79,-99.99,,,0.00,153,weatherlink.com 1.10,2013-06-08 14:25:00,
2013-06-08 09:40:00,63.8,57.0,29.79,SSW,209,9.0,-999.0,78,-99.99,,,0.00,105,weatherlink.com 1.10,2013-06-08 14:40:00,
2013-06-08 09:55:00,64.1,57.0,29.79,SSW,197,5.0,-999.0,78,-99.99,,,0.00,91,weatherlink.com 1.10,2013-06-08 14:55:00,
2013-06-08 10:10:00,64.4,57.0,29.78,South,189,7.0,-999.0,78,-99.99,,,0.00,139,weatherlink.com 1.10,2013-06-08 15:10:00,
2013-06-08 10:27:00,65.1,58.0,29.76,South,171,6.0,-999.0,77,-99.99,,,0.00,202,weatherlink.com 1.10,2013-06-08 15:27:00,
2013-06-08 10:41:00,65.7,58.0,29.75,SE,144,10.0,-999.0,76,-99.99,,,0.00,104,weatherlink.com 1.10,2013-06-08 15:41:00,
2013-06-08 10:56:00,66.0,58.0,29.74,SSE,154,10.0,-999.0,75,-99.99,,,0.00,95,weatherlink.com 1.10,2013-06-08 15:56:00,
2013-06-08 11:11:00,66.7,59.0,29.72,SSE,164,11.0,-999.0,76,-99.99,,,0.00,204,weatherlink.com 1.10,2013-06-08 16:11:00,
2013-06-08 11:26:00,67.3,59.0,29.71,South,175,19.0,-999.0,74,-99.99,,,0.00,200,weatherlink.com 1.10,2013-06-08 16:26:00,
2013-06-08 11:41:00,68.8,60.0,29.71,South,169,16.0,-999.0,74,-99.99,,,0.00,742,weatherlink.com 1.10,2013-06-08 16:41:00,
2013-06-08 11:56:00,70.2,60.0,29.71,SSE,156,16.0,-999.0,69,-99.99,,,0.00,343,weatherlink.com 1.10,2013-06-08 16:56:00,
2013-06-08 12:26:00,72.2,60.0,29.68,SSE,158,23.0,-999.0,66,-99.99,,,0.00,295,weatherlink.com 1.10,2013-06-08 17:26:00,
2013-06-08 12:41:00,72.1,60.0,29.68,SSE,161,16.0,-999.0,66,-99.99,,,0.00,229,weatherlink.com 1.10,2013-06-08 17:41:00,
2013-06-08 12:56:00,71.8,60.0,29.72,SSW,196,7.0,-999.0,67,-99.99,,,0.00,121,weatherlink.com 1.10,2013-06-08 17:56:00,
2013-06-08 13:41:00,72.2,63.0,29.71,SSE,167,9.0,-999.0,72,-99.99,,,0.00,174,weatherlink.com 1.10,2013-06-08 18:41:00,
2013-06-08 14:11:00,71.7,62.0,29.70,South,186,12.0,-999.0,72,-99.99,,,0.00,111,weatherlink.com 1.10,2013-06-08 19:11:00,
2013-06-08 14:26:00,71.4,62.0,29.71,South,190,12.0,-999.0,73,-99.99,,,0.00,146,weatherlink.com 1.10,2013-06-08 19:26:00,
2013-06-08 14:41:00,72.1,63.0,29.70,South,171,6.0,-999.0,74,-99.99,,,0.00,246,weatherlink.com 1.10,2013-06-08 19:41:00,
2013-06-08 14:56:00,73.3,63.0,29.69,SSW,192,12.0,-999.0,71,-99.99,,,0.00,276,weatherlink.com 1.10,2013-06-08 19:56:00,
2013-06-08 15:11:00,74.0,63.0,29.69,South,180,8.0,-999.0,69,-99.99,,,0.00,91,weatherlink.com 1.10,2013-06-08 20:11:00,
2013-06-08 15:26:00,73.5,64.0,29.69,SSW,194,6.0,-999.0,72,-99.99,,,0.00,100,weatherlink.com 1.10,2013-06-08 20:26:00,
2013-06-08 15:41:00,73.1,63.0,29.68,SSW,211,22.0,-999.0,71,-99.99,,,0.00,183,weatherlink.com 1.10,2013-06-08 20:41:00,
2013-06-08 15:56:00,72.5,64.0,29.68,SW,235,14.0,-999.0,74,-99.99,,,0.00,169,weatherlink.com 1.10,2013-06-08 20:56:00,
2013-06-08 16:11:00,71.2,64.0,29.69,SW,219,8.0,-999.0,79,-99.99,,,0.02,25,weatherlink.com 1.10,2013-06-08 21:11:00,
2013-06-08 16:26:00,69.7,64.0,29.68,SW,219,12.0,-999.0,83,-99.99,,,0.02,114,weatherlink.com 1.10,2013-06-08 21:26:00,
2013-06-08 16:41:00,69.8,66.0,29.67,SSW,202,9.0,-999.0,86,-99.99,,,0.02,287,weatherlink.com 1.10,2013-06-08 21:41:00,
2013-06-08 16:56:00,72.0,68.0,29.65,SSW,204,15.0,-999.0,87,-99.99,,,0.02,729,weatherlink.com 1.10,2013-06-08 21:56:00,
2013-06-08 17:11:00,72.6,66.0,29.64,South,170,15.0,-999.0,80,-99.99,,,0.02,269,weatherlink.com 1.10,2013-06-08 22:11:00,
2013-06-08 17:26:00,73.0,66.0,29.64,SSW,199,18.0,-999.0,79,-99.99,,,0.02,190,weatherlink.com 1.10,2013-06-08 22:26:00,
2013-06-08 17:43:00,71.9,65.0,29.63,SW,220,19.0,-999.0,78,-99.99,,,0.02,113,weatherlink.com 1.10,2013-06-08 22:43:00,
2013-06-08 17:56:00,71.3,65.0,29.65,WSW,240,13.0,-999.0,79,-99.99,,,0.02,26,weatherlink.com 1.10,2013-06-08 22:56:00,
2013-06-08 18:12:00,70.9,66.0,29.67,West,268,13.0,-999.0,83,-99.99,,,0.02,120,weatherlink.com 1.10,2013-06-08 23:12:00,
2013-06-08 18:27:00,70.3,65.0,29.67,WNW,300,15.0,-999.0,82,-99.99,,,0.02,70,weatherlink.com 1.10,2013-06-08 23:27:00,
2013-06-08 18:42:00,69.6,64.0,29.68,West,281,7.0,-999.0,82,-99.99,,,0.02,30,weatherlink.com 1.10,2013-06-08 23:42:00,
2013-06-08 18:57:00,68.9,64.0,29.69,WNW,284,7.0,-999.0,84,-99.99,,,0.02,16,weatherlink.com 1.10,2013-06-08 23:57:00,
2013-06-08 19:12:00,68.3,64.0,29.69,West,266,8.0,-999.0,85,-99.99,,,0.00,14,weatherlink.com 1.10,2013-06-09 00:12:00,
2013-06-08 19:27:00,67.6,63.0,29.70,West,279,9.0,-999.0,84,-99.99,,,0.00,16,weatherlink.com 1.10,2013-06-09 00:27:00,
2013-06-08 19:42:00,67.4,62.0,29.71,WNW,295,9.0,-999.0,82,-99.99,,,0.00,21,weatherlink.com 1.10,2013-06-09 00:42:00,
2013-06-08 19:57:00,67.1,61.0,29.71,WNW,289,8.0,-999.0,81,-99.99,,,0.00,28,weatherlink.com 1.10,2013-06-09 00:57:00,
2013-06-08 20:12:00,66.9,61.0,29.72,West,281,9.0,-999.0,81,-99.99,,,0.00,19,weatherlink.com 1.10,2013-06-09 01:12:00,
2013-06-08 20:27:00,66.5,61.0,29.72,West,275,7.0,-999.0,82,-99.99,,,0.00,23,weatherlink.com 1.10,2013-06-09 01:27:00,
2013-06-08 20:42:00,66.3,60.0,29.72,West,259,6.0,-999.0,81,-99.99,,,0.00,12,weatherlink.com 1.10,2013-06-09 01:42:00,
2013-06-08 20:57:00,65.9,60.0,29.71,WSW,254,5.0,-999.0,81,-99.99,,,0.00,0,weatherlink.com 1.10,2013-06-09 01:57:00,
2013-06-08 21:12:00,65.3,60.0,29.71,WSW,242,5.0,-999.0,82,-99.99,,,0.00,0,weatherlink.com 1.10,2013-06-09 02:12:00,
2013-06-08 21:27:00,64.5,60.0,29.71,WSW,240,5.0,-999.0,84,-99.99,,,0.00,0,weatherlink.com 1.10,2013-06-09 02:27:00,
2013-06-08 21:42:00,63.8,59.0,29.71,SW,228,4.0,-999.0,84,-99.99,,,0.00,0,weatherlink.com 1.10,2013-06-09 02:42:00,
2013-06-08 21:57:00,63.2,59.0,29.72,WSW,248,4.0,-999.0,85,-99.99,,,0.00,0,weatherlink.com 1.10,2013-06-09 02:57:00,
2013-06-08 22:12:00,62.9,59.0,29.73,WSW,243,11.0,-999.0,86,-99.99,,,0.00,0,weatherlink.com 1.10,2013-06-09 03:12:00,
2013-06-08 22:27:00,62.8,59.0,29.74,WSW,237,8.0,-999.0,87,-99.99,,,0.00,0,weatherlink.com 1.10,2013-06-09 03:27:00,
2013-06-08 22:42:00,62.8,59.0,29.74,SW,221,6.0,-999.0,86,-99.99,,,0.00,0,weatherlink.com 1.10,2013-06-09 03:42:00,
2013-06-08 22:57:00,62.7,59.0,29.74,SW,232,6.0,-999.0,86,-99.99,,,0.00,0,weatherlink.com 1.10,2013-06-09 03:57:00,
2013-06-08 23:12:00,62.5,58.0,29.75,SW,227,7.0,-999.0,86,-99.99,,,0.00,0,weatherlink.com 1.10,2013-06-09 04:12:00,
2013-06-08 23:27:00,62.5,58.0,29.77,WSW,250,6.0,-999.0,85,-99.99,,,0.00,0,weatherlink.com 1.10,2013-06-09 04:27:00,
2013-06-08 23:42:00,62.6,58.0,29.77,WSW,248,8.0,-999.0,85,-99.99,,,0.00,0,weatherlink.com 1.10,2013-06-09 04:42:00,
2013-06-08 23:57:00,62.7,58.0,29.77,West,268,7.0,-999.0,85,-99.99,,,0.00,0,weatherlink.com 1.10,2013-06-09 04:57:00,